TELLUMGE Weather Reports


time (UTC)temp
C
wind
direction
speed
KPH
gust
KPH
rain 1hr
cm
rain 24hr
cm
rain mn
cm
humidity
%
barometer
mb
20260508210003 16 44 3.2 9.7 0.00 0.00 0.00 55 1019.4
20260508204519 15 69 1.6 6.4 0.00 0.00 0.00 62 1019.3
20260508203012 13 73 3.2 6.4 0.00 0.00 0.00 63 1019.2
20260508201517 12 55 1.6 3.2 0.00 0.00 0.00 72 1018.9
20260508193008 14 60 0.0 1.6 0.00 0.00 0.00 59 1018.5
20260508191515 15 66 1.6 3.2 0.00 0.00 0.00 57 1018.3
20260508190024 15 58 1.6 4.8 0.00 0.00 0.00 54 1018.3
20260508181512 17 23 0.0 6.4 0.00 0.00 0.00 37 1018.0
20260508180021 17 27 1.6 4.8 0.00 0.00 0.00 39 1018.0
20260508174520 17 41 0.0 4.8 0.00 0.00 0.00 42 1018.0
20260508170017 17 103 0.0 3.2 0.00 0.00 0.00 52 1018.0
20260508164518 18 57 1.6 6.4 0.00 0.00 0.00 47 1018.1
20260508163020 18 72 1.6 4.8 0.00 0.00 0.00 44 1017.9
20260508161527 18 88 0.0 6.4 0.00 0.00 0.00 42 1018.0
20260508160012 18 60 1.6 4.8 0.00 0.00 0.00 44 1018.0
20260508154513 18 46 0.0 1.6 0.00 0.00 0.00 41 1018.0
20260508153019 18 23 0.0 4.8 0.00 0.00 0.00 42 1018.2
20260508151520 19 58 0.0 8.0 0.00 0.00 0.00 37 1018.2
20260508150032 19 48 0.0 8.0 0.00 0.00 0.00 40 1018.2
20260508144512 19 112 1.6 6.4 0.00 0.00 0.00 44 1018.4
20260508143019 18 60 1.6 9.7 0.00 0.00 0.00 47 1018.5
20260508141518 18 52 1.6 6.4 0.00 0.00 0.00 56 1018.5
20260508140022 18 65 3.2 8.0 0.00 0.00 0.00 52 1018.5
20260508134531 18 65 0.0 3.2 0.00 0.00 0.00 54 1018.7
20260508133017 19 73 0.0 9.7 0.00 0.00 0.00 52 1018.8
20260508131516 18 78 0.0 3.2 0.00 0.00 0.00 55 1018.9
20260508130022 19 62 0.0 4.8 0.00 0.00 0.00 51 1019.1
20260508124522 19 70 0.0 8.0 0.00 0.00 0.00 53 1019.3
20260508123028 19 82 0.0 4.8 0.00 0.00 0.00 55 1019.3
20260508121546 19 63 0.0 4.8 0.00 0.00 0.00 59 1019.3
20260508120004 18 62 1.6 4.8 0.00 0.00 0.00 61 1019.3
20260508114504 18 82 0.0 4.8 0.00 0.00 0.00 70 1019.4
20260508113004 18 86 0.0 3.2 0.00 0.00 0.00 71 1019.4
20260508111504 19 94 0.0 1.6 0.00 0.00 0.00 67 1019.5
20260508104504 20 30 0.0 6.4 0.00 0.00 0.00 66 1019.4
20260508103012 20 73 0.0 3.2 0.00 0.00 0.00 70 1019.2
20260508101506 20 38 1.6 9.7 0.00 0.00 0.00 70 1019.1
20260508100006 20 61 0.0 1.6 0.00 0.00 0.00 73 1018.9
20260508094507 20 26 0.0 4.8 0.00 0.00 0.00 70 1018.8
20260508093005 20 76 0.0 4.8 0.00 0.00 0.00 70 1018.9
20260508091511 21 78 1.6 8.0 0.00 0.00 0.00 68 1018.7
20260508090008 21 53 0.0 4.8 0.00 0.00 0.00 70 1018.2
20260508083020 21 129 0.0 6.4 0.00 0.00 0.00 70 1017.7
20260508081508 21 248 0.0 4.8 0.00 0.00 0.00 72 1017.6
20260508080005 21 54 0.0 4.8 0.00 0.00 0.00 71 1017.5
20260508074507 21 168 0.0 4.8 0.00 0.00 0.00 71 1017.3
20260508073006 21 117 0.0 1.6 0.00 0.00 0.00 72 1017.2
20260508070009 22 165 0.0 3.2 0.00 0.00 0.00 72 1016.6
20260508064515 22 64 0.0 6.4 0.00 0.00 0.00 72 1016.3
20260508060009 23 127 0.0 4.8 0.00 0.00 0.00 70 1016.1
20260508054504 23 224 0.0 4.8 0.00 0.00 0.00 71 1016.1
20260508053010 23 155 0.0 4.8 0.00 0.00 0.00 70 1016.1
20260508044512 24 292 0.0 3.2 0.00 0.00 0.00 69 1016.3
20260508043004 24 101 0.0 8.0 0.00 0.00 0.00 69 1016.2
20260508040011 26 155 0.0 6.4 0.00 0.00 0.00 60 1016.4
20260508033010 26 59 0.0 4.8 0.00 0.00 0.00 57 1016.4
20260508031503 26 77 0.0 4.8 0.00 0.00 0.00 55 1016.7
20260508030008 26 59 1.6 8.0 0.00 0.00 0.00 57 1016.9
20260508024522 26 201 0.0 4.8 0.00 0.00 0.00 59 1017.1
20260508021517 25 307 0.0 8.0 0.00 0.00 0.00 56 1017.7
20260508020013 25 37 3.2 9.7 0.00 0.00 0.00 53 1018.1
20260508014507 25 60 3.2 6.4 0.00 0.00 0.00 55 1018.2
20260508013014 25 61 1.6 8.0 0.00 0.00 0.00 54 1018.5
20260508011517 25 105 0.0 6.4 0.00 0.00 0.00 55 1018.6
20260508010022 24 37 1.6 6.4 0.00 0.00 0.00 55 1018.9
20260508004520 23 305 1.6 11.3 0.00 0.00 0.00 55 1018.9
20260507234520 23 68 1.6 16.1 0.00 0.00 0.00 54 1018.9
20260507233020 23 72 4.8 17.7 0.00 0.00 0.00 56 1018.9
20260507231514 23 92 3.2 9.7 0.00 0.00 0.00 57 1018.8
20260507230016 22 60 1.6 11.3 0.00 0.00 0.00 60 1018.8
20260507224519 22 20 1.6 11.3 0.00 0.00 0.00 61 1018.8
20260507223021 21 82 4.8 20.9 0.00 0.00 0.00 62 1018.4
20260507221520 21 29 3.2 9.7 0.00 0.00 0.00 64 1018.3
20260507220013 20 18 0.0 4.8 0.00 0.00 0.00 71 1018.3
20260507214519 19 55 0.0 6.4 0.00 0.00 0.00 76 1018.1
20260507213028 20 34 0.0 11.3 0.00 0.00 0.00 69 1017.8
20260507211522 19 6 0.0 3.2 0.00 0.00 0.00 76 1017.7